User: anonymous   Login
Location: Newark
(6.1731°S, 35.7419°E)
Time: 20:45:39
(UTC+00:00)
Language:

Altair - Orbit

View from above orbital plane
View from above orbital plane
View from above satellite
View from above satellite

Ground track
Ground track

The orbit data is extracted from the following two-line orbital elements,

1    50U 60009B   20047.51517479 -.00000118 +00000-0 -31427-3 0  9994
2    50 047.2310 139.7257 0113368 322.0028 037.2805 12.20108982655337
Epoch (UTC): 16 February 2020 12:21:51
Eccentricity: 0.0113368
inclination: 47.2310°
perigee height: 1502 km
apogee height: 1682 km
right ascension of ascending node: 139.7257°
argument of perigee: 322.0028°
revolutions per day: 12.20108982
mean anomaly at epoch: 37.2805°
orbit number at epoch: 65533

The dashed part of the orbit path shows where the satellite is in the earth's shadow,  

DLR